[[{"header":{"parameterUnit":"m.s-1","parameterCategory":1,"la1":30.2991,"la2":30.254,"lo1":-89.0895,"lo2":-89.0444,"dy":0.0017,"dx":0.0017,"nx":28,"ny":28,"refTime":"2024-12-25T09:00:00:Z","depth":0,"parameterNumber":2,"parameterNumberName":"U-component_of_WINDS"},"data":[0,0,0,0,0,0,0,0,0,0,0,0,0,0,0,0,0,0,0,0,0,0,0,0,0,0,0,0,0,0,0,0,0,0,0,0,0,0,0,0,0,0,0,0,0,0,0,0,0,0,0,0,0,0,0,0,0,0,-6.0026,-6.0026,0,-6.0069,-6.007,-6.007,-5.9924,-5.9919,-5.9915,-5.9911,-5.9962,-5.9967,-5.9973,0,0,0,0,0,0,0,0,0,0,0,0,0,-5.9821,-5.9826,-6.0026,-6.0026,-6.0027,-6.0069,-6.007,-6.007,-5.9924,-5.9919,-5.9914,-5.9909,-5.996,-5.9967,-5.9973,0,0,0,0,0,0,0,0,0,0,0,0,0,-5.9892,-5.9827,-6.0026,-5.9959,-5.9953,-6.0069,-6.007,-6.0071,-5.9926,-5.9919,-5.9912,-5.9906,-5.9958,-5.9966,-5.9974,-6.0158,0,0,-5.9999,-6.0003,0,0,0,0,0,0,0,0,-5.9889,-5.99,-5.9968,-5.9964,-5.9958,-5.9984,-6.0016,-6.01,-5.9927,-5.9936,-5.991,-5.9903,-5.9975,-5.9982,-6.0005,-6.0161,-6.0163,-6.0,-6.0005,-6.0009,-6.0011,0,0,0,0,0,0,0,-5.9884,-5.9897,-6.0043,-5.9969,-5.9963,-5.9929,-5.9931,-6.0032,-5.9993,-5.9935,-5.9924,-5.9931,-5.9971,-5.9997,-6.0005,-6.0164,-6.0,-6.0007,-6.0012,-6.0015,-6.0473,-6.0479,0,0,0,0,0,0,-5.9887,-5.9894,-6.0042,-6.0044,-5.9906,-5.9938,-5.9941,-5.9982,-5.9991,-5.9986,-5.9937,-5.9924,-5.9986,-5.9995,-6.0006,-6.0221,-6.0009,-6.0016,-6.0021,-6.0465,-6.0474,-6.0482,0,0,0,0,0,0,-5.9883,-5.9901,-6.004,-5.9966,-5.9981,-5.9948,-5.9996,-5.9987,-6.0012,-5.9992,-5.9985,-5.997,-5.9981,-5.9994,-6.0121,-6.0221,-6.002,-6.0028,-6.0457,-6.0468,-6.0478,-6.0654,0,0,0,0,0,0,-5.9878,-5.9901,-5.9969,-5.9969,-5.9986,-6.0153,-6.0002,-5.9992,-6.0026,-6.001,-6.0022,-6.0017,-5.9977,-6.0109,-6.0129,-6.0228,-6.0034,-6.0448,-6.0462,-6.0475,-6.0639,-6.0669,-6.0695,0,0,0,0,0,-5.9871,-6.0019,-5.9973,-5.9992,-6.007,-6.0159,-6.0169,-6.0117,-6.0035,-6.0104,-6.0091,-6.0017,-6.0207,-6.0124,-6.0145,-6.0248,-6.0441,-6.0458,-6.0474,-6.0626,-6.0663,-6.0694,0,0,0,0,0,0,-6.0034,-6.0017,-5.9967,-6.0118,-6.0141,-6.0134,-6.0219,-6.0158,-6.0206,-6.0189,-6.0125,-6.013,-6.0268,-6.0271,-6.0178,-6.0426,-6.031,-6.0331,-6.0419,-6.0454,-6.0482,-6.0478,-6.0041,0,0,0,0,0,-6.0087,-6.0158,-6.0141,-6.0276,-6.029,-6.0253,-6.029,-6.0248,-6.027,-6.0279,-6.0275,-6.0301,-6.0366,-6.041,-6.0469,-6.0639,-6.0639,-6.0721,-6.0749,-6.0772,-6.0791,-6.088,-6.0915,-6.0535,-6.0535,-6.0535,0,0,-6.0198,-6.0198,-6.0247,-6.0309,-6.0321,-6.0398,-6.0262,-6.035,-6.0406,-6.0293,-6.0411,-6.041,-6.0434,-6.0583,-6.0648,-6.059,-6.0896,-6.0793,-6.0811,-6.0817,-6.09,-6.0936,-6.0968,-6.0546,-6.0544,-6.0542,0,0,-6.0439,-6.0447,-6.0559,-6.0574,-6.0594,-6.0568,-6.0596,-6.0598,-6.0592,-6.0709,-6.0626,-6.0694,-6.0807,-6.0827,-6.0853,-6.1102,-6.1036,-6.1124,-6.127,-6.1358,-6.1388,-6.1414,-6.1502,-6.1534,-6.1143,-6.1143,-6.1143,0,-6.0575,-6.0685,-6.0626,-6.0718,-6.0748,-6.0647,-6.0761,-6.078,-6.0819,-6.0843,-6.0776,-6.0916,-6.0925,-6.1077,-6.1137,-6.1162,-6.1191,-6.1121,-6.1388,-6.1414,-6.1437,-6.152,-6.1554,-6.1153,-6.1152,-6.1151,-6.115,0,-6.0851,-6.0929,-6.1018,-6.1056,-6.1096,-6.12,-6.1157,-6.1205,-6.1161,-6.1143,-6.1264,-6.1272,-6.133,-6.1363,-6.1322,-6.1509,-6.1472,-6.1398,-6.128,-6.1485,-6.1562,-6.1593,-6.1168,-6.1165,-6.1162,-6.1159,0,0,-6.1195,-6.1197,-6.1231,-6.1246,-6.1261,-6.1321,-6.1421,-6.1475,-6.1518,-6.1549,-6.1631,-6.1729,-6.166,-6.169,-6.1649,-6.1727,-6.1922,-6.1643,-6.1643,-6.1694,-6.2129,-6.2183,-6.2221,-6.1879,-6.1885,-6.1889,-6.2126,0,-6.143,-6.1597,-6.1547,-6.1716,-6.1787,-6.1693,-6.1779,-6.1799,-6.1785,-6.1845,-6.1831,-6.1901,-6.1806,-6.1823,-6.1895,-6.1883,-6.2009,-6.1866,-6.1955,-6.1959,-6.195,-6.2261,-6.2319,-6.2542,-6.2156,-6.2161,-6.2165,0,-6.1727,-6.1767,-6.1943,-6.1944,-6.1972,-6.2051,-6.2096,-6.2155,-6.2176,-6.216,-6.2193,-6.2137,-6.2236,-6.2118,-6.2254,-6.2158,-6.2192,-6.2192,-6.2199,-6.2205,-6.2073,-6.2274,-6.2612,-6.2645,-6.2212,-6.2208,-6.2205,0,-6.1958,-6.2057,-6.2173,-6.219,-6.2196,-6.2253,-6.2258,-6.2272,-6.2308,-6.2349,-6.2372,-6.2426,-6.2455,-6.2498,-6.2459,-6.2377,-6.2601,-6.248,-6.2591,-6.2593,-6.2641,-6.2639,-6.2988,-6.2667,-6.2666,-6.2666,-6.2665,0,-6.2225,-6.2336,-6.2277,-6.2349,-6.2471,-6.2413,-6.2536,-6.2531,-6.2544,-6.2614,-6.2538,-6.2606,-6.255,-6.2614,-6.2585,-6.2701,-6.2716,-6.2707,-6.2697,-6.2713,-6.2714,-6.2733,-6.2716,-6.2674,-6.2672,-6.2671,-6.2669,0,-6.2503,-6.2468,-6.2589,-6.2584,-6.2586,-6.2676,-6.2672,-6.2739,-6.272,-6.281,-6.2828,-6.28,-6.2871,-6.2836,-6.2911,-6.2891,-6.3041,-6.3012,-6.3033,-6.3025,-6.3138,-6.3127,-6.3511,-6.3558,-6.3208,-6.3211,-6.3214,0,-6.2675,-6.2757,-6.2761,-6.2801,-6.2811,-6.2878,-6.2914,-6.2861,-6.2902,-6.2931,-6.2996,-6.306,-6.3108,-6.3227,-6.3214,-6.3271,-6.3241,-6.3372,-6.3249,-6.3262,-6.3241,-6.3236,-6.3244,-6.3396,-6.34,-6.3403,-6.3406,0,-6.2983,-6.2961,-6.3014,-6.3062,-6.3106,-6.3142,-6.3172,-6.321,-6.3158,-6.3208,-6.3279,-6.3316,-6.3392,-6.3457,-6.3506,-6.3514,-6.3452,-6.3445,-6.3473,-6.3489,-6.3497,-6.3493,-6.3099,-6.3436,-6.3433,-6.3431,-6.3429,-6.3428,-6.3211,-6.328,-6.3292,-6.3354,-6.3371,-6.34,-6.3462,-6.3451,-6.3508,-6.3563,-6.353,-6.3613,-6.3632,-6.3692,-6.3708,-6.3773,-6.3721,-6.3763,-6.3773,-6.3784,-6.3798,-6.3489,-6.3782,-6.3781,-6.3781,-6.378,-6.3779,0,-6.3514,-6.3517,-6.3575,-6.3617,-6.3666,-6.3602,-6.3632,-6.3678,-6.3751,-6.3773,-6.3821,-6.3903,-6.3966,-6.3958,-6.4015,-6.4069,-6.4042,-6.4086,-6.4081,-6.4083,-6.3842,-6.3811,-6.4107,-6.4107,-6.4106,-6.4106,-6.4106,-6.4106,-6.3676,-6.3788,-6.3769,-6.3889,-6.3892,-6.397,-6.3993,-6.402,-6.4037,-6.413,-6.4181,-6.4175,-6.4185,-6.4243,-6.4298,-6.4294,-6.4318,-6.4372,-6.4358,-6.4133,-6.41,-6.4069,-6.4039,-6.4379,-6.4379,-6.4593,-6.4595,-6.4597]},{"header":{"parameterUnit":"m.s-1","parameterCategory":1,"la1":30.2991,"la2":30.254,"lo1":-89.0895,"lo2":-89.0444,"dy":0.0017,"dx":0.0017,"nx":28,"ny":28,"refTime":"2024-12-25T09:00:00:Z","depth":0,"parameterNumber":3,"parameterNumberName":"V-component_of_WINDS"},"data":[0,0,0,0,0,0,0,0,0,0,0,0,0,0,0,0,0,0,0,0,0,0,0,0,0,0,0,0,0,0,0,0,0,0,0,0,0,0,0,0,0,0,0,0,0,0,0,0,0,0,0,0,0,0,0,0,0,0,-0.8037,-0.8036,0,-0.799,-0.7989,-0.7989,-0.792,-0.7919,-0.7918,-0.7917,-0.7873,-0.7872,-0.7872,0,0,0,0,0,0,0,0,0,0,0,0,0,-0.8068,-0.8068,-0.8037,-0.8036,-0.8036,-0.799,-0.7989,-0.7989,-0.7921,-0.7919,-0.7918,-0.7916,-0.7873,-0.7872,-0.7872,0,0,0,0,0,0,0,0,0,0,0,0,0,-0.8041,-0.8068,-0.8037,-0.7996,-0.7992,-0.799,-0.7989,-0.7988,-0.7921,-0.7919,-0.7917,-0.7916,-0.7873,-0.7872,-0.7872,-0.7908,0,0,-0.7872,-0.7872,0,0,0,0,0,0,0,0,-0.8043,-0.804,-0.8003,-0.7999,-0.7994,-0.7959,-0.7984,-0.7962,-0.7921,-0.7948,-0.7917,-0.7915,-0.7903,-0.79,-0.7896,-0.7906,-0.7904,-0.7872,-0.7872,-0.7872,-0.7872,0,0,0,0,0,0,0,-0.8045,-0.8042,-0.8018,-0.8002,-0.7997,-0.798,-0.7974,-0.7979,-0.7936,-0.7946,-0.794,-0.7936,-0.79,-0.7896,-0.7894,-0.7903,-0.7872,-0.7872,-0.7872,-0.7872,-0.7936,-0.7938,0,0,0,0,0,0,-0.8052,-0.8044,-0.802,-0.8017,-0.8014,-0.7981,-0.7975,-0.7972,-0.7936,-0.7929,-0.7937,-0.7933,-0.7897,-0.7894,-0.7892,-0.7929,-0.7872,-0.7872,-0.7872,-0.7934,-0.7937,-0.7939,0,0,0,0,0,0,-0.8053,-0.8051,-0.8022,-0.8029,-0.8024,-0.7982,-0.798,-0.7972,-0.7968,-0.793,-0.7922,-0.794,-0.7895,-0.7892,-0.7903,-0.7926,-0.7872,-0.7872,-0.7932,-0.7935,-0.7938,-0.8004,0,0,0,0,0,0,-0.8055,-0.8052,-0.8065,-0.803,-0.8024,-0.8034,-0.7982,-0.7973,-0.7967,-0.7961,-0.7931,-0.7924,-0.7894,-0.7904,-0.7903,-0.7925,-0.7872,-0.793,-0.7934,-0.7937,-0.8,-0.8009,-0.8017,0,0,0,0,0,-0.8056,-0.8087,-0.8066,-0.8064,-0.8039,-0.8035,-0.8032,-0.7995,-0.7969,-0.7982,-0.7957,-0.7925,-0.7924,-0.7906,-0.7904,-0.7927,-0.7929,-0.7933,-0.7936,-0.7996,-0.8007,-0.8016,0,0,0,0,0,0,-0.8129,-0.8082,-0.8058,-0.8079,-0.8061,-0.8024,-0.8039,-0.8009,-0.7999,-0.7994,-0.795,-0.7944,-0.796,-0.7944,-0.7925,-0.7957,-0.7921,-0.7925,-0.7967,-0.7977,-0.7985,-0.7989,-0.7872,0,0,0,0,0,-0.8147,-0.8147,-0.8106,-0.8128,-0.812,-0.8081,-0.8078,-0.8051,-0.8032,-0.8024,-0.8,-0.7984,-0.7979,-0.7977,-0.7971,-0.7997,-0.7988,-0.8012,-0.802,-0.8027,-0.8031,-0.8041,-0.805,-0.7952,-0.7952,-0.7951,0,0,-0.8185,-0.8159,-0.8162,-0.8142,-0.8125,-0.8126,-0.8076,-0.808,-0.8079,-0.8025,-0.8033,-0.8015,-0.7993,-0.8011,-0.8017,-0.7998,-0.8056,-0.8032,-0.8038,-0.8038,-0.8046,-0.8055,-0.8063,-0.7954,-0.7954,-0.7953,0,0,-0.8254,-0.8236,-0.825,-0.8234,-0.8208,-0.8181,-0.8184,-0.815,-0.8135,-0.8142,-0.8101,-0.81,-0.8094,-0.8079,-0.8071,-0.813,-0.8099,-0.8129,-0.8174,-0.8183,-0.8191,-0.8198,-0.8217,-0.8225,-0.8133,-0.8134,-0.8134,0,-0.8305,-0.8304,-0.8262,-0.8267,-0.8259,-0.8207,-0.8221,-0.8207,-0.8182,-0.8177,-0.8156,-0.8144,-0.8126,-0.8138,-0.8152,-0.8148,-0.8149,-0.8133,-0.8193,-0.8199,-0.8205,-0.8223,-0.8231,-0.8137,-0.8137,-0.8137,-0.8136,0,-0.8367,-0.8366,-0.8381,-0.8355,-0.8348,-0.8358,-0.8317,-0.8315,-0.8288,-0.8263,-0.8269,-0.8245,-0.8232,-0.8233,-0.8208,-0.824,-0.8229,-0.8201,-0.8164,-0.8219,-0.8235,-0.8241,-0.8143,-0.8141,-0.814,-0.8139,0,0,-0.8483,-0.843,-0.8437,-0.8422,-0.8389,-0.8388,-0.8394,-0.8379,-0.8377,-0.8361,-0.8364,-0.8358,-0.8331,-0.8321,-0.8293,-0.8302,-0.8348,-0.8273,-0.8271,-0.8286,-0.838,-0.8401,-0.8409,-0.8327,-0.8328,-0.8329,-0.8381,0,-0.8545,-0.8552,-0.8513,-0.853,-0.8528,-0.8477,-0.8483,-0.8462,-0.8439,-0.8433,-0.8407,-0.8403,-0.8368,-0.8361,-0.8368,-0.8341,-0.8366,-0.8337,-0.833,-0.833,-0.8336,-0.8418,-0.8441,-0.8491,-0.8388,-0.8389,-0.8389,0,-0.8619,-0.8603,-0.8619,-0.8581,-0.8579,-0.8584,-0.8565,-0.8561,-0.8536,-0.8518,-0.8506,-0.8472,-0.8475,-0.8439,-0.8442,-0.8423,-0.8417,-0.8403,-0.8404,-0.8402,-0.8363,-0.8417,-0.8507,-0.8514,-0.8399,-0.8399,-0.8398,0,-0.8699,-0.8682,-0.8689,-0.8679,-0.8635,-0.864,-0.8622,-0.8595,-0.8587,-0.8571,-0.8565,-0.8551,-0.8543,-0.8532,-0.8495,-0.8472,-0.8501,-0.8463,-0.8485,-0.8486,-0.8494,-0.8494,-0.8583,-0.8492,-0.8492,-0.8492,-0.8491,0,-0.8772,-0.8784,-0.8724,-0.8729,-0.874,-0.8694,-0.8706,-0.8683,-0.8659,-0.8658,-0.8614,-0.8614,-0.8565,-0.8559,-0.853,-0.8535,-0.8533,-0.8517,-0.851,-0.8521,-0.8523,-0.8517,-0.8512,-0.8494,-0.8493,-0.8493,-0.8492,0,-0.8864,-0.8825,-0.8829,-0.8786,-0.8775,-0.8785,-0.8748,-0.875,-0.8722,-0.872,-0.8717,-0.8674,-0.8664,-0.8626,-0.8608,-0.8588,-0.8603,-0.8588,-0.8611,-0.8605,-0.8629,-0.8627,-0.8717,-0.8726,-0.8631,-0.8632,-0.8633,0,-0.8913,-0.892,-0.8877,-0.8872,-0.8855,-0.8848,-0.8839,-0.8794,-0.8786,-0.8756,-0.8761,-0.8747,-0.8734,-0.8721,-0.8688,-0.8673,-0.8657,-0.8689,-0.8655,-0.8665,-0.8655,-0.8655,-0.8654,-0.8697,-0.8698,-0.8699,-0.87,0,-0.9003,-0.8982,-0.897,-0.895,-0.894,-0.8923,-0.8904,-0.8902,-0.8852,-0.8845,-0.8833,-0.8823,-0.8802,-0.8789,-0.8768,-0.8749,-0.8716,-0.8711,-0.8715,-0.8727,-0.8739,-0.873,-0.863,-0.8709,-0.8708,-0.8708,-0.8707,-0.8707,-0.9073,-0.9076,-0.9045,-0.9032,-0.9012,-0.8994,-0.8993,-0.8963,-0.8952,-0.8931,-0.8905,-0.8896,-0.8868,-0.8836,-0.8819,-0.8812,-0.8793,-0.88,-0.8801,-0.8804,-0.8808,-0.874,-0.8808,-0.8808,-0.8807,-0.8807,-0.8807,0,-0.9159,-0.9136,-0.9124,-0.9097,-0.9086,-0.9054,-0.903,-0.9023,-0.9015,-0.8992,-0.8978,-0.8963,-0.8949,-0.8914,-0.8896,-0.8896,-0.888,-0.8893,-0.8892,-0.8888,-0.8827,-0.8824,-0.8906,-0.8906,-0.8906,-0.8906,-0.8906,-0.8906,-0.9203,-0.9205,-0.918,-0.9171,-0.9148,-0.9137,-0.9126,-0.9108,-0.9088,-0.9073,-0.906,-0.9037,-0.9008,-0.8987,-0.8972,-0.8962,-0.8957,-0.8974,-0.8959,-0.8902,-0.8893,-0.8884,-0.8881,-0.8974,-0.8974,-0.9021,-0.9021,-0.9022]}]]